Wetterdaten: Mittwoch, 11.11.2015
Datum Zeit Auen-Temp. Temp gefhlt Luftfeuchte Luftdruck Regen Wind Richtung Richtung Taupunkt Windben
11.11.2015 00:00 3,7 C 3,5 C 71 % 1026,0 hPa 0,0 mm 0,0 km/h (0 Bft) O-SO 112 -1,1 C 0,0 km/h (0 Bft)
11.11.2015 00:05 3,6 C 3,3 C 72 % 1026,0 hPa 0,0 mm 0,0 km/h (0 Bft) O-SO 112 -1,0 C 0,0 km/h (0 Bft)
11.11.2015 00:10 4,1 C 3,6 C 73 % 1026,1 hPa 0,0 mm 0,0 km/h (0 Bft) O-SO 112 -0,3 C 0,0 km/h (0 Bft)
11.11.2015 00:15 3,9 C 3,5 C 73 % 1026,1 hPa 0,0 mm 0,0 km/h (0 Bft) O-SO 112 -0,5 C 0,0 km/h (0 Bft)
11.11.2015 00:20 3,8 C 3,4 C 73 % 1026,1 hPa 0,0 mm 0,0 km/h (0 Bft) SO 135 -0,6 C 0,0 km/h (0 Bft)
11.11.2015 00:25 4,3 C 3,8 C 73 % 1026,1 hPa 0,0 mm 0,0 km/h (0 Bft) SW 225 -0,1 C 0,0 km/h (0 Bft)
11.11.2015 00:30 4,0 C 3,6 C 73 % 1025,8 hPa 0,0 mm 0,0 km/h (0 Bft) SW 225 -0,4 C 0,0 km/h (0 Bft)
11.11.2015 00:35 3,2 C 3,0 C 72 % 1025,8 hPa 0,0 mm 0,0 km/h (0 Bft) SW 225 -1,3 C 0,0 km/h (0 Bft)
11.11.2015 00:40 3,0 C 2,8 C 73 % 1025,8 hPa 0,0 mm 0,0 km/h (0 Bft) W-SW 247 -1,4 C 0,0 km/h (0 Bft)
11.11.2015 00:45 3,7 C 3,3 C 75 % 1025,8 hPa 0,0 mm 0,3 km/h (0 Bft) S-SO 157 -0,3 C 0,0 km/h (0 Bft)
11.11.2015 00:50 4,3 C 3,9 C 72 % 1025,7 hPa 0,0 mm 0,3 km/h (0 Bft) S 180 -0,3 C 4,1 km/h (1 Bft)
11.11.2015 00:55 3,6 C 3,4 C 74 % 1025,7 hPa 0,0 mm 0,0 km/h (0 Bft) S-SO 157 -0,6 C 0,0 km/h (0 Bft)
11.11.2015 01:00 3,7 C 3,5 C 74 % 1025,7 hPa 0,0 mm 0,0 km/h (0 Bft) SO 135 -0,5 C 0,0 km/h (0 Bft)
11.11.2015 01:05 3,4 C 3,3 C 74 % 1025,7 hPa 0,0 mm 0,0 km/h (0 Bft) O-SO 112 -0,8 C 0,0 km/h (0 Bft)
11.11.2015 01:10 3,4 C 3,3 C 74 % 1025,8 hPa 0,0 mm 0,0 km/h (0 Bft) O-SO 112 -0,8 C 0,0 km/h (0 Bft)
11.11.2015 01:15 3,4 C 3,2 C 74 % 1025,8 hPa 0,0 mm 0,0 km/h (0 Bft) O-SO 112 -0,8 C 0,0 km/h (0 Bft)
11.11.2015 01:20 3,0 C 2,8 C 74 % 1025,8 hPa 0,0 mm 0,0 km/h (0 Bft) O-SO 112 -1,2 C 0,0 km/h (0 Bft)
11.11.2015 01:25 2,9 C 2,7 C 75 % 1025,8 hPa 0,0 mm 0,0 km/h (0 Bft) O-SO 112 -1,1 C 0,0 km/h (0 Bft)
11.11.2015 01:30 2,4 C 2,2 C 74 % 1025,6 hPa 0,0 mm 0,0 km/h (0 Bft) O-SO 112 -1,7 C 0,0 km/h (0 Bft)
11.11.2015 01:35 3,3 C 2,8 C 72 % 1025,6 hPa 0,0 mm 0,3 km/h (0 Bft) S-SO 157 -1,3 C 0,0 km/h (0 Bft)
11.11.2015 01:40 3,8 C 3,4 C 73 % 1025,6 hPa 0,0 mm 0,8 km/h (0 Bft) S 180 -0,6 C 3,4 km/h (1 Bft)
11.11.2015 01:45 4,7 C 4,3 C 72 % 1025,6 hPa 0,0 mm 2,8 km/h (1 Bft) SO 135 0,1 C 6,5 km/h (2 Bft)
11.11.2015 01:50 5,1 C 4,8 C 69 % 1025,8 hPa 0,0 mm 4,1 km/h (1 Bft) S-SO 157 -0,1 C 7,3 km/h (2 Bft)
11.11.2015 01:55 5,1 C 5,0 C 67 % 1025,8 hPa 0,0 mm 4,4 km/h (1 Bft) S-SO 157 -0,5 C 3,1 km/h (1 Bft)
11.11.2015 02:00 5,3 C 5,3 C 66 % 1025,8 hPa 0,0 mm 3,1 km/h (1 Bft) S-SO 157 -0,5 C 0,0 km/h (0 Bft)
11.11.2015 02:05 5,4 C 5,4 C 64 % 1025,8 hPa 0,0 mm 0,8 km/h (0 Bft) S 180 -0,9 C 0,0 km/h (0 Bft)
11.11.2015 02:10 4,6 C 5,1 C 64 % 1025,6 hPa 0,0 mm 0,3 km/h (0 Bft) O-SO 112 -1,6 C 0,0 km/h (0 Bft)
11.11.2015 02:15 3,8 C 4,0 C 66 % 1025,6 hPa 0,0 mm 0,0 km/h (0 Bft) O-SO 112 -2,0 C 0,0 km/h (0 Bft)
11.11.2015 02:20 3,8 C 3,7 C 66 % 1025,6 hPa 0,0 mm 0,0 km/h (0 Bft) SO 135 -2,0 C 0,0 km/h (0 Bft)
11.11.2015 02:25 4,4 C 4,1 C 66 % 1025,6 hPa 0,0 mm 0,0 km/h (0 Bft) SO 135 -1,4 C 0,0 km/h (0 Bft)
11.11.2015 02:30 4,1 C 3,8 C 66 % 1025,4 hPa 0,0 mm 0,0 km/h (0 Bft) O-SO 112 -1,7 C 0,0 km/h (0 Bft)
11.11.2015 02:35 3,9 C 3,5 C 67 % 1025,4 hPa 0,0 mm 0,0 km/h (0 Bft) S 180 -1,7 C 0,0 km/h (0 Bft)
11.11.2015 02:38 3,9 C 3,5 C 67 % 1025,4 hPa 0,0 mm 0,0 km/h (0 Bft) S 180 -1,7 C 0,0 km/h (0 Bft)
11.11.2015 02:40 3,9 C 3,5 C 66 % 1025,4 hPa 0,0 mm 0,8 km/h (0 Bft) O-SO 112 -1,9 C 0,0 km/h (0 Bft)
11.11.2015 02:45 4,0 C 3,7 C 67 % 1025,4 hPa 0,0 mm 1,0 km/h (0 Bft) S 180 -1,6 C 2,8 km/h (1 Bft)
11.11.2015 02:50 4,1 C 3,9 C 67 % 1025,6 hPa 0,0 mm 0,8 km/h (0 Bft) S 180 -1,5 C 9,6 km/h (2 Bft)
11.11.2015 02:55 4,3 C 4,1 C 67 % 1025,6 hPa 0,0 mm 0,3 km/h (0 Bft) S-SO 157 -1,3 C 0,0 km/h (0 Bft)
11.11.2015 03:00 3,6 C 3,5 C 66 % 1025,6 hPa 0,0 mm 0,0 km/h (0 Bft) O-SO 112 -2,1 C 0,0 km/h (0 Bft)
11.11.2015 03:05 3,0 C 2,9 C 67 % 1025,6 hPa 0,0 mm 0,0 km/h (0 Bft) O-SO 112 -2,5 C 0,0 km/h (0 Bft)
11.11.2015 03:10 3,1 C 2,9 C 67 % 1025,4 hPa 0,0 mm 0,0 km/h (0 Bft) O-SO 112 -2,4 C 0,0 km/h (0 Bft)
11.11.2015 03:15 2,9 C 2,6 C 69 % 1025,4 hPa 0,0 mm 0,0 km/h (0 Bft) SO 135 -2,2 C 0,0 km/h (0 Bft)
11.11.2015 03:20 3,8 C 3,2 C 69 % 1025,4 hPa 0,0 mm 0,0 km/h (0 Bft) S 180 -1,4 C 0,0 km/h (0 Bft)
11.11.2015 03:25 4,2 C 3,7 C 67 % 1025,4 hPa 0,0 mm 0,3 km/h (0 Bft) S-SO 157 -1,4 C 3,6 km/h (1 Bft)
11.11.2015 03:30 4,2 C 3,9 C 67 % 1025,6 hPa 0,0 mm 0,8 km/h (0 Bft) S 180 -1,4 C 0,0 km/h (0 Bft)
11.11.2015 03:35 4,2 C 3,9 C 66 % 1025,6 hPa 0,0 mm 1,3 km/h (1 Bft) S-SO 157 -1,6 C 0,0 km/h (0 Bft)
11.11.2015 03:40 3,6 C 3,5 C 66 % 1025,6 hPa 0,0 mm 0,8 km/h (0 Bft) NO 45 -2,1 C 0,0 km/h (0 Bft)
11.11.2015 03:45 3,1 C 2,9 C 67 % 1025,6 hPa 0,0 mm 0,3 km/h (0 Bft) O-NO 67 -2,4 C 0,0 km/h (0 Bft)
11.11.2015 03:50 3,0 C 2,8 C 67 % 1025,4 hPa 0,0 mm 0,0 km/h (0 Bft) O-SO 112 -2,5 C 0,0 km/h (0 Bft)
11.11.2015 03:55 2,7 C 2,4 C 68 % 1025,4 hPa 0,0 mm 0,0 km/h (0 Bft) O-SO 112 -2,6 C 0,0 km/h (0 Bft)
11.11.2015 04:00 2,7 C 2,3 C 69 % 1025,4 hPa 0,0 mm 0,0 km/h (0 Bft) O-SO 112 -2,4 C 0,0 km/h (0 Bft)
11.11.2015 04:05 2,2 C 1,9 C 69 % 1025,4 hPa 0,0 mm 0,0 km/h (0 Bft) O-SO 112 -2,9 C 0,0 km/h (0 Bft)
11.11.2015 04:10 2,1 C 1,7 C 69 % 1025,3 hPa 0,0 mm 0,0 km/h (0 Bft) S 180 -3,0 C 0,0 km/h (0 Bft)
11.11.2015 04:15 2,5 C 2,0 C 71 % 1025,3 hPa 0,0 mm 0,0 km/h (0 Bft) NO 45 -2,2 C 0,0 km/h (0 Bft)
11.11.2015 04:20 1,9 C 1,6 C 71 % 1025,3 hPa 0,0 mm 0,0 km/h (0 Bft) NO 45 -2,8 C 0,0 km/h (0 Bft)
11.11.2015 04:25 2,1 C 1,7 C 72 % 1025,3 hPa 0,0 mm 0,0 km/h (0 Bft) NO 45 -2,4 C 0,0 km/h (0 Bft)
11.11.2015 04:30 1,7 C 1,4 C 72 % 1025,2 hPa 0,0 mm 0,0 km/h (0 Bft) NO 45 -2,8 C 0,0 km/h (0 Bft)
11.11.2015 04:35 2,0 C 1,5 C 73 % 1025,2 hPa 0,0 mm 0,0 km/h (0 Bft) NO 45 -2,3 C 0,0 km/h (0 Bft)
11.11.2015 04:40 1,7 C 1,3 C 73 % 1025,2 hPa 0,0 mm 0,0 km/h (0 Bft) NO 45 -2,6 C 0,0 km/h (0 Bft)
11.11.2015 04:45 1,8 C 1,3 C 73 % 1025,2 hPa 0,0 mm 0,0 km/h (0 Bft) NO 45 -2,5 C 0,0 km/h (0 Bft)
11.11.2015 04:50 1,8 C 1,3 C 73 % 1025,3 hPa 0,0 mm 0,0 km/h (0 Bft) NO 45 -2,5 C 0,0 km/h (0 Bft)
11.11.2015 04:55 1,6 C 1,1 C 73 % 1025,3 hPa 0,0 mm 0,0 km/h (0 Bft) N 360 -2,7 C 0,0 km/h (0 Bft)
11.11.2015 05:00 1,4 C 0,9 C 73 % 1025,3 hPa 0,0 mm 0,0 km/h (0 Bft) N 360 -2,9 C 0,0 km/h (0 Bft)
11.11.2015 05:05 1,5 C 0,9 C 74 % 1025,3 hPa 0,0 mm 0,0 km/h (0 Bft) S 180 -2,6 C 0,0 km/h (0 Bft)
11.11.2015 05:10 1,3 C 0,8 C 74 % 1025,4 hPa 0,0 mm 0,0 km/h (0 Bft) SO 135 -2,8 C 0,0 km/h (0 Bft)
11.11.2015 05:15 1,1 C 0,7 C 74 % 1025,4 hPa 0,0 mm 0,0 km/h (0 Bft) SO 135 -3,0 C 0,0 km/h (0 Bft)
11.11.2015 05:20 0,8 C 0,4 C 75 % 1025,4 hPa 0,0 mm 0,0 km/h (0 Bft) SO 135 -3,1 C 0,0 km/h (0 Bft)
11.11.2015 05:25 0,7 C 0,3 C 75 % 1025,4 hPa 0,0 mm 0,0 km/h (0 Bft) SO 135 -3,2 C 0,0 km/h (0 Bft)
11.11.2015 05:30 1,1 C 0,6 C 76 % 1025,4 hPa 0,0 mm 0,3 km/h (0 Bft) O-SO 112 -2,6 C 0,0 km/h (0 Bft)
11.11.2015 05:35 0,9 C 0,5 C 77 % 1025,4 hPa 0,0 mm 0,5 km/h (0 Bft) O-NO 67 -2,7 C 0,0 km/h (0 Bft)
11.11.2015 05:40 0,8 C 0,4 C 77 % 1025,4 hPa 0,0 mm 0,3 km/h (0 Bft) O 90 -2,8 C 0,0 km/h (0 Bft)
11.11.2015 05:45 0,7 C 0,4 C 77 % 1025,4 hPa 0,0 mm 0,0 km/h (0 Bft) O-NO 67 -2,9 C 0,0 km/h (0 Bft)
11.11.2015 05:50 0,8 C 0,4 C 78 % 1025,4 hPa 0,0 mm 0,0 km/h (0 Bft) S-SO 157 -2,6 C 0,0 km/h (0 Bft)
11.11.2015 05:55 1,5 C 1,5 C 74 % 1025,4 hPa 0,0 mm 0,3 km/h (0 Bft) S-SO 157 -2,6 C 0,0 km/h (0 Bft)
11.11.2015 06:00 1,7 C 1,4 C 77 % 1025,4 hPa 0,0 mm 0,3 km/h (0 Bft) SO 135 -1,9 C 0,0 km/h (0 Bft)
11.11.2015 06:05 2,4 C 2,4 C 74 % 1025,4 hPa 0,0 mm 0,8 km/h (0 Bft) S-SO 157 -1,7 C 0,0 km/h (0 Bft)
11.11.2015 06:10 2,1 C 2,0 C 73 % 1025,3 hPa 0,0 mm 0,8 km/h (0 Bft) NO 45 -2,2 C 0,0 km/h (0 Bft)
11.11.2015 06:15 1,4 C 1,3 C 73 % 1025,3 hPa 0,0 mm 0,3 km/h (0 Bft) O-NO 67 -2,9 C 0,0 km/h (0 Bft)
11.11.2015 06:20 1,1 C 1,0 C 73 % 1025,3 hPa 0,0 mm 0,0 km/h (0 Bft) O-NO 67 -3,2 C 0,0 km/h (0 Bft)
11.11.2015 06:25 1,0 C 0,6 C 74 % 1025,3 hPa 0,0 mm 0,0 km/h (0 Bft) O-NO 67 -3,1 C 0,0 km/h (0 Bft)
11.11.2015 06:30 0,8 C 0,4 C 74 % 1025,4 hPa 0,0 mm 0,0 km/h (0 Bft) O-NO 67 -3,3 C 0,0 km/h (0 Bft)
11.11.2015 06:36 1,0 C 0,5 C 75 % 1025,4 hPa 0,0 mm 0,0 km/h (0 Bft) O-NO 67 -2,9 C 0,0 km/h (0 Bft)
11.11.2015 06:40 0,7 C 0,3 C 75 % 1025,4 hPa 0,0 mm 0,0 km/h (0 Bft) O-NO 67 -3,2 C 0,0 km/h (0 Bft)
11.11.2015 06:45 0,8 C 0,3 C 75 % 1025,4 hPa 0,0 mm 0,0 km/h (0 Bft) O-NO 67 -3,1 C 0,0 km/h (0 Bft)
11.11.2015 06:50 0,7 C 0,3 C 76 % 1025,2 hPa 0,0 mm 0,3 km/h (0 Bft) O 90 -3,0 C 3,1 km/h (1 Bft)
11.11.2015 06:55 1,2 C 0,6 C 76 % 1025,2 hPa 0,0 mm 0,3 km/h (0 Bft) S 180 -2,5 C 0,0 km/h (0 Bft)
11.11.2015 07:00 1,1 C 0,5 C 76 % 1025,2 hPa 0,0 mm 0,0 km/h (0 Bft) W 270 -2,6 C 0,0 km/h (0 Bft)
11.11.2015 07:05 0,7 C 0,3 C 75 % 1025,2 hPa 0,0 mm 0,0 km/h (0 Bft) W 270 -3,2 C 0,0 km/h (0 Bft)
11.11.2015 07:10 0,5 C 0,1 C 75 % 1025,2 hPa 0,0 mm 0,0 km/h (0 Bft) W 270 -3,4 C 0,0 km/h (0 Bft)
11.11.2015 07:15 0,4 C 0,0 C 76 % 1025,2 hPa 0,0 mm 0,0 km/h (0 Bft) O-NO 67 -3,3 C 0,0 km/h (0 Bft)
11.11.2015 07:20 0,1 C -0,3 C 76 % 1025,2 hPa 0,0 mm 0,0 km/h (0 Bft) O-NO 67 -3,6 C 0,0 km/h (0 Bft)
11.11.2015 07:25 0,2 C -0,2 C 76 % 1025,2 hPa 0,0 mm 0,0 km/h (0 Bft) O-NO 67 -3,5 C 0,0 km/h (0 Bft)
11.11.2015 07:30 -0,1 C -0,5 C 76 % 1025,4 hPa 0,0 mm 0,0 km/h (0 Bft) O-NO 67 -3,8 C 0,0 km/h (0 Bft)
11.11.2015 07:35 -0,2 C -0,6 C 76 % 1025,4 hPa 0,0 mm 0,0 km/h (0 Bft) O-SO 112 -3,9 C 0,0 km/h (0 Bft)
11.11.2015 07:40 0,1 C -0,3 C 77 % 1025,4 hPa 0,0 mm 0,0 km/h (0 Bft) SW 225 -3,4 C 0,0 km/h (0 Bft)
11.11.2015 07:45 0,3 C 0,1 C 78 % 1025,4 hPa 0,0 mm 0,0 km/h (0 Bft) O-NO 67 -3,1 C 0,0 km/h (0 Bft)
11.11.2015 07:50 0,4 C 0,4 C 75 % 1025,2 hPa 0,0 mm 0,0 km/h (0 Bft) N-NO 22 -3,5 C 0,0 km/h (0 Bft)
11.11.2015 07:55 0,6 C 0,4 C 78 % 1025,2 hPa 0,0 mm 0,0 km/h (0 Bft) N-NO 22 -2,8 C 0,0 km/h (0 Bft)
11.11.2015 08:00 0,6 C 0,4 C 78 % 1025,2 hPa 0,0 mm 0,0 km/h (0 Bft) N-NO 22 -2,8 C 0,0 km/h (0 Bft)
11.11.2015 08:05 0,6 C 0,4 C 78 % 1025,2 hPa 0,0 mm 0,0 km/h (0 Bft) NW 315 -2,8 C 0,0 km/h (0 Bft)
11.11.2015 08:10 1,0 C 0,7 C 78 % 1025,5 hPa 0,0 mm 0,0 km/h (0 Bft) NO 45 -2,4 C 0,0 km/h (0 Bft)
11.11.2015 08:15 1,3 C 1,0 C 75 % 1025,5 hPa 0,0 mm 0,0 km/h (0 Bft) NO 45 -2,6 C 0,0 km/h (0 Bft)
11.11.2015 08:20 1,1 C 0,8 C 78 % 1025,5 hPa 0,0 mm 0,0 km/h (0 Bft) NO 45 -2,3 C 0,0 km/h (0 Bft)
11.11.2015 08:25 1,3 C 0,9 C 78 % 1025,5 hPa 0,0 mm 0,0 km/h (0 Bft) NO 45 -2,1 C 0,0 km/h (0 Bft)
11.11.2015 08:30 1,2 C 0,8 C 77 % 1025,8 hPa 0,0 mm 0,0 km/h (0 Bft) NO 45 -2,4 C 0,0 km/h (0 Bft)
11.11.2015 08:35 1,5 C 1,0 C 77 % 1025,8 hPa 0,0 mm 0,0 km/h (0 Bft) NO 45 -2,1 C 0,0 km/h (0 Bft)
11.11.2015 08:39 1,5 C 1,0 C 77 % 1025,8 hPa 0,0 mm 0,0 km/h (0 Bft) NO 45 -2,1 C 0,0 km/h (0 Bft)
11.11.2015 08:40 1,6 C 1,1 C 77 % 1025,8 hPa 0,0 mm 0,0 km/h (0 Bft) NO 45 -2,0 C 0,0 km/h (0 Bft)
11.11.2015 08:45 1,9 C 1,3 C 77 % 1025,8 hPa 0,0 mm 0,0 km/h (0 Bft) NO 45 -1,7 C 0,0 km/h (0 Bft)
11.11.2015 08:50 2,2 C 1,6 C 74 % 1025,8 hPa 0,0 mm 0,0 km/h (0 Bft) NO 45 -1,9 C 0,0 km/h (0 Bft)
11.11.2015 08:55 2,4 C 1,6 C 77 % 1025,8 hPa 0,0 mm 0,0 km/h (0 Bft) NO 45 -1,2 C 0,0 km/h (0 Bft)
11.11.2015 09:00 2,4 C 1,6 C 76 % 1025,8 hPa 0,0 mm 0,0 km/h (0 Bft) NO 45 -1,4 C 0,0 km/h (0 Bft)
11.11.2015 09:05 2,8 C 1,9 C 77 % 1025,8 hPa 0,0 mm 0,0 km/h (0 Bft) NO 45 -0,8 C 0,0 km/h (0 Bft)
11.11.2015 09:10 3,4 C 2,3 C 76 % 1025,8 hPa 0,0 mm 0,0 km/h (0 Bft) NO 45 -0,4 C 0,0 km/h (0 Bft)
11.11.2015 09:15 4,0 C 2,7 C 76 % 1025,8 hPa 0,0 mm 0,0 km/h (0 Bft) NO 45 0,2 C 0,0 km/h (0 Bft)
11.11.2015 09:20 3,9 C 2,6 C 75 % 1025,8 hPa 0,0 mm 0,0 km/h (0 Bft) NO 45 -0,1 C 0,0 km/h (0 Bft)
11.11.2015 09:25 4,4 C 3,0 C 74 % 1025,8 hPa 0,0 mm 0,0 km/h (0 Bft) NO 45 0,2 C 0,0 km/h (0 Bft)
11.11.2015 09:30 5,1 C 3,4 C 73 % 1025,9 hPa 0,0 mm 0,0 km/h (0 Bft) NO 45 0,7 C 0,0 km/h (0 Bft)
11.11.2015 09:35 5,1 C 3,4 C 72 % 1025,9 hPa 0,0 mm 0,0 km/h (0 Bft) NO 45 0,5 C 0,0 km/h (0 Bft)
11.11.2015 09:40 5,0 C 3,4 C 72 % 1025,9 hPa 0,0 mm 0,0 km/h (0 Bft) NO 45 0,4 C 0,0 km/h (0 Bft)
11.11.2015 09:45 5,6 C 3,8 C 70 % 1025,9 hPa 0,0 mm 0,0 km/h (0 Bft) NO 45 0,6 C 0,0 km/h (0 Bft)
11.11.2015 09:50 5,7 C 3,8 C 70 % 1025,8 hPa 0,0 mm 0,0 km/h (0 Bft) NO 45 0,7 C 0,0 km/h (0 Bft)
11.11.2015 09:55 6,2 C 4,2 C 67 % 1025,8 hPa 0,0 mm 0,0 km/h (0 Bft) NO 45 0,5 C 0,0 km/h (0 Bft)
11.11.2015 10:01 6,4 C 4,3 C 66 % 1025,8 hPa 0,0 mm 0,0 km/h (0 Bft) NO 45 0,5 C 0,0 km/h (0 Bft)
11.11.2015 10:05 6,4 C 4,3 C 67 % 1025,8 hPa 0,0 mm 0,0 km/h (0 Bft) NO 45 0,7 C 0,0 km/h (0 Bft)
11.11.2015 10:10 6,5 C 4,4 C 67 % 1025,8 hPa 0,0 mm 0,0 km/h (0 Bft) NO 45 0,8 C 0,0 km/h (0 Bft)
11.11.2015 10:15 6,9 C 4,6 C 67 % 1025,8 hPa 0,0 mm 0,0 km/h (0 Bft) NO 45 1,2 C 0,0 km/h (0 Bft)
11.11.2015 10:20 6,9 C 4,6 C 66 % 1025,8 hPa 0,0 mm 0,0 km/h (0 Bft) NO 45 1,0 C 0,0 km/h (0 Bft)
11.11.2015 10:26 7,3 C 4,9 C 65 % 1025,8 hPa 0,0 mm 0,0 km/h (0 Bft) NO 45 1,2 C 0,0 km/h (0 Bft)
11.11.2015 10:30 7,7 C 5,2 C 65 % 1025,7 hPa 0,0 mm 0,0 km/h (0 Bft) NO 45 1,5 C 0,0 km/h (0 Bft)
11.11.2015 10:35 8,1 C 5,4 C 62 % 1025,7 hPa 0,0 mm 0,0 km/h (0 Bft) NO 45 1,3 C 0,0 km/h (0 Bft)
11.11.2015 10:40 8,5 C 5,7 C 62 % 1025,7 hPa 0,0 mm 0,0 km/h (0 Bft) NO 45 1,6 C 0,0 km/h (0 Bft)
11.11.2015 10:45 8,3 C 5,6 C 61 % 1025,7 hPa 0,0 mm 0,0 km/h (0 Bft) NO 45 1,2 C 0,0 km/h (0 Bft)
11.11.2015 10:50 8,3 C 5,6 C 61 % 1025,8 hPa 0,0 mm 0,0 km/h (0 Bft) NO 45 1,2 C 0,0 km/h (0 Bft)
11.11.2015 10:55 8,9 C 6,0 C 61 % 1025,8 hPa 0,0 mm 0,0 km/h (0 Bft) NO 45 1,8 C 0,0 km/h (0 Bft)
11.11.2015 11:00 9,1 C 6,1 C 60 % 1025,8 hPa 0,0 mm 0,0 km/h (0 Bft) NO 45 1,8 C 0,0 km/h (0 Bft)
11.11.2015 11:05 9,2 C 6,2 C 59 % 1025,8 hPa 0,0 mm 0,0 km/h (0 Bft) NO 45 1,6 C 0,0 km/h (0 Bft)
11.11.2015 11:10 9,7 C 6,5 C 59 % 1025,7 hPa 0,0 mm 0,0 km/h (0 Bft) NO 45 2,1 C 0,0 km/h (0 Bft)
11.11.2015 11:15 9,9 C 6,6 C 57 % 1025,7 hPa 0,0 mm 0,0 km/h (0 Bft) NO 45 1,8 C 0,0 km/h (0 Bft)
11.11.2015 11:20 10,3 C 6,9 C 57 % 1025,7 hPa 0,0 mm 0,0 km/h (0 Bft) NO 45 2,2 C 0,0 km/h (0 Bft)
11.11.2015 11:25 10,7 C 7,2 C 57 % 1025,7 hPa 0,0 mm 0,0 km/h (0 Bft) NO 45 2,5 C 0,0 km/h (0 Bft)
11.11.2015 11:30 11,1 C 7,4 C 56 % 1025,8 hPa 0,0 mm 0,0 km/h (0 Bft) NO 45 2,7 C 0,0 km/h (0 Bft)
11.11.2015 11:35 10,9 C 7,3 C 56 % 1025,8 hPa 0,0 mm 0,0 km/h (0 Bft) NO 45 2,5 C 0,0 km/h (0 Bft)
11.11.2015 11:40 10,6 C 7,1 C 56 % 1025,8 hPa 0,0 mm 0,0 km/h (0 Bft) NO 45 2,2 C 0,0 km/h (0 Bft)
11.11.2015 11:45 10,9 C 7,3 C 56 % 1025,8 hPa 0,0 mm 0,0 km/h (0 Bft) NO 45 2,5 C 0,0 km/h (0 Bft)
11.11.2015 11:50 11,0 C 7,4 C 56 % 1025,8 hPa 0,0 mm 0,0 km/h (0 Bft) NO 45 2,6 C 0,0 km/h (0 Bft)
11.11.2015 11:55 10,9 C 7,3 C 56 % 1025,8 hPa 0,0 mm 0,0 km/h (0 Bft) NO 45 2,5 C 0,0 km/h (0 Bft)
11.11.2015 12:00 10,8 C 7,2 C 56 % 1025,8 hPa 0,0 mm 0,0 km/h (0 Bft) NO 45 2,4 C 0,0 km/h (0 Bft)
11.11.2015 12:05 11,2 C 7,5 C 56 % 1025,8 hPa 0,0 mm 0,0 km/h (0 Bft) NO 45 2,8 C 0,0 km/h (0 Bft)
11.11.2015 12:10 11,2 C 7,5 C 56 % 1025,7 hPa 0,0 mm 0,0 km/h (0 Bft) NO 45 2,8 C 0,0 km/h (0 Bft)
11.11.2015 12:15 11,4 C 7,6 C 56 % 1025,7 hPa 0,0 mm 0,0 km/h (0 Bft) NO 45 2,9 C 0,0 km/h (0 Bft)
11.11.2015 12:20 11,2 C 7,5 C 56 % 1025,7 hPa 0,0 mm 0,0 km/h (0 Bft) NO 45 2,8 C 0,0 km/h (0 Bft)
11.11.2015 12:25 11,3 C 7,6 C 56 % 1025,7 hPa 0,0 mm 0,0 km/h (0 Bft) NO 45 2,8 C 0,0 km/h (0 Bft)
11.11.2015 12:31 11,3 C 7,6 C 56 % 1025,6 hPa 0,0 mm 0,0 km/h (0 Bft) NO 45 2,8 C 0,0 km/h (0 Bft)
11.11.2015 12:35 11,3 C 7,6 C 56 % 1025,6 hPa 0,0 mm 0,0 km/h (0 Bft) NO 45 2,8 C 0,0 km/h (0 Bft)
11.11.2015 12:40 11,4 C 7,6 C 56 % 1025,6 hPa 0,0 mm 0,0 km/h (0 Bft) NO 45 2,9 C 0,0 km/h (0 Bft)
11.11.2015 12:45 11,3 C 7,6 C 56 % 1025,6 hPa 0,0 mm 0,0 km/h (0 Bft) NO 45 2,8 C 0,0 km/h (0 Bft)
11.11.2015 12:50 11,6 C 7,8 C 56 % 1025,4 hPa 0,0 mm 0,0 km/h (0 Bft) NO 45 3,1 C 0,0 km/h (0 Bft)
11.11.2015 12:55 11,4 C 7,6 C 55 % 1025,4 hPa 0,0 mm 0,0 km/h (0 Bft) NO 45 2,7 C 0,0 km/h (0 Bft)
11.11.2015 13:00 11,6 C 7,8 C 55 % 1025,4 hPa 0,0 mm 0,0 km/h (0 Bft) NO 45 2,9 C 0,0 km/h (0 Bft)
11.11.2015 13:05 11,9 C 8,0 C 55 % 1025,4 hPa 0,0 mm 0,0 km/h (0 Bft) NO 45 3,2 C 0,0 km/h (0 Bft)
11.11.2015 13:10 12,0 C 8,0 C 54 % 1025,2 hPa 0,0 mm 0,0 km/h (0 Bft) NO 45 3,0 C 0,0 km/h (0 Bft)
11.11.2015 13:15 12,2 C 8,2 C 54 % 1025,2 hPa 0,0 mm 0,0 km/h (0 Bft) NO 45 3,2 C 0,0 km/h (0 Bft)
11.11.2015 13:20 12,5 C 8,4 C 53 % 1025,2 hPa 0,0 mm 0,0 km/h (0 Bft) NO 45 3,2 C 0,0 km/h (0 Bft)
11.11.2015 13:25 13,4 C 9,0 C 54 % 1025,2 hPa 0,0 mm 0,0 km/h (0 Bft) NO 45 4,3 C 0,0 km/h (0 Bft)
11.11.2015 13:30 13,9 C 9,3 C 53 % 1025,1 hPa 0,0 mm 0,0 km/h (0 Bft) NO 45 4,5 C 0,0 km/h (0 Bft)
11.11.2015 13:35 14,7 C 9,8 C 53 % 1025,1 hPa 0,0 mm 0,0 km/h (0 Bft) NO 45 5,2 C 0,0 km/h (0 Bft)
11.11.2015 13:40 14,9 C 10,0 C 52 % 1025,1 hPa 0,0 mm 0,0 km/h (0 Bft) NO 45 5,1 C 0,0 km/h (0 Bft)
11.11.2015 13:45 15,1 C 10,2 C 50 % 1025,1 hPa 0,0 mm 0,0 km/h (0 Bft) NO 45 4,8 C 0,0 km/h (0 Bft)
11.11.2015 13:50 15,2 C 10,3 C 51 % 1025,7 hPa 0,0 mm 0,0 km/h (0 Bft) NO 45 5,1 C 0,0 km/h (0 Bft)
11.11.2015 13:55 14,7 C 10,3 C 50 % 1025,7 hPa 0,0 mm 0,0 km/h (0 Bft) NO 45 4,4 C 0,0 km/h (0 Bft)
11.11.2015 14:00 14,5 C 21,1 C 50 % 1025,7 hPa 0,0 mm 2,1 km/h (1 Bft) S-SO 157 4,2 C 4,4 km/h (1 Bft)
11.11.2015 14:05 14,3 C 21,1 C 50 % 1025,7 hPa 0,0 mm 1,6 km/h (1 Bft) N-NW 337 4,0 C 0,0 km/h (0 Bft)
11.11.2015 14:10 14,0 C 21,1 C 50 % 1025,9 hPa 0,0 mm 2,1 km/h (1 Bft) W 270 3,7 C 6,0 km/h (2 Bft)
11.11.2015 14:15 13,8 C 21,1 C 50 % 1025,9 hPa 0,0 mm 1,6 km/h (1 Bft) NW 315 3,6 C 0,0 km/h (0 Bft)
11.11.2015 14:20 14,2 C 21,3 C 50 % 1025,9 hPa 0,0 mm 0,8 km/h (0 Bft) NW 315 3,9 C 3,4 km/h (1 Bft)
11.11.2015 14:25 15,0 C 21,4 C 49 % 1025,9 hPa 0,0 mm 0,5 km/h (0 Bft) W-NW 292 4,4 C 0,0 km/h (0 Bft)
11.11.2015 14:30 15,2 C 21,1 C 49 % 1025,9 hPa 0,0 mm 1,6 km/h (1 Bft) W 270 4,6 C 0,0 km/h (0 Bft)
11.11.2015 14:35 15,2 C 21,2 C 49 % 1025,9 hPa 0,0 mm 1,6 km/h (1 Bft) W 270 4,6 C 3,9 km/h (1 Bft)
11.11.2015 14:39 15,1 C 21,1 C 49 % 1025,9 hPa 0,0 mm 1,3 km/h (1 Bft) SW 225 4,5 C 4,1 km/h (1 Bft)
11.11.2015 14:40 15,1 C 21,1 C 49 % 1025,9 hPa 0,0 mm 1,3 km/h (1 Bft) SW 225 4,5 C 4,1 km/h (1 Bft)
11.11.2015 14:45 15,1 C 20,9 C 46 % 1025,9 hPa 0,0 mm 1,6 km/h (1 Bft) S-SW 202 3,6 C 0,0 km/h (0 Bft)
11.11.2015 14:50 15,1 C 20,6 C 47 % 1025,9 hPa 0,0 mm 1,6 km/h (1 Bft) SW 225 3,9 C 0,0 km/h (0 Bft)
11.11.2015 14:55 15,0 C 20,5 C 48 % 1025,9 hPa 0,0 mm 0,8 km/h (0 Bft) W-NW 292 4,1 C 0,0 km/h (0 Bft)
11.11.2015 15:00 15,0 C 20,5 C 48 % 1025,9 hPa 0,0 mm 0,3 km/h (0 Bft) W 270 4,1 C 0,0 km/h (0 Bft)
11.11.2015 15:05 14,2 C 20,4 C 49 % 1025,9 hPa 0,0 mm 0,3 km/h (0 Bft) W-SW 247 3,6 C 0,0 km/h (0 Bft)
11.11.2015 15:10 13,7 C 19,4 C 49 % 1025,5 hPa 0,0 mm 0,3 km/h (0 Bft) S 180 3,2 C 0,0 km/h (0 Bft)
11.11.2015 15:15 13,1 C 17,2 C 50 % 1025,5 hPa 0,0 mm 0,0 km/h (0 Bft) S 180 2,9 C 0,0 km/h (0 Bft)
11.11.2015 15:20 12,8 C 16,0 C 52 % 1025,5 hPa 0,0 mm 0,0 km/h (0 Bft) S-SO 157 3,2 C 0,0 km/h (0 Bft)
11.11.2015 15:25 12,9 C 14,9 C 53 % 1025,5 hPa 0,0 mm 0,0 km/h (0 Bft) S 180 3,6 C 0,0 km/h (0 Bft)
11.11.2015 15:30 12,7 C 14,0 C 54 % 1025,4 hPa 0,0 mm 0,0 km/h (0 Bft) S 180 3,6 C 0,0 km/h (0 Bft)
11.11.2015 15:35 12,4 C 13,2 C 56 % 1025,4 hPa 0,0 mm 0,0 km/h (0 Bft) S 180 3,9 C 0,0 km/h (0 Bft)
11.11.2015 15:40 12,3 C 12,5 C 56 % 1025,4 hPa 0,0 mm 0,0 km/h (0 Bft) S 180 3,8 C 0,0 km/h (0 Bft)
11.11.2015 15:45 12,2 C 12,2 C 56 % 1025,4 hPa 0,0 mm 0,0 km/h (0 Bft) S 180 3,7 C 0,0 km/h (0 Bft)
11.11.2015 15:50 12,1 C 12,0 C 56 % 1024,9 hPa 0,0 mm 0,0 km/h (0 Bft) SO 135 3,6 C 0,0 km/h (0 Bft)
11.11.2015 15:55 12,0 C 11,8 C 57 % 1024,9 hPa 0,0 mm 0,0 km/h (0 Bft) SO 135 3,8 C 0,0 km/h (0 Bft)
11.11.2015 16:00 11,9 C 11,6 C 57 % 1024,9 hPa 0,0 mm 0,0 km/h (0 Bft) S-SO 157 3,7 C 0,0 km/h (0 Bft)
11.11.2015 16:05 11,7 C 11,5 C 57 % 1024,9 hPa 0,0 mm 0,0 km/h (0 Bft) S 180 3,5 C 0,0 km/h (0 Bft)
11.11.2015 16:10 11,6 C 11,4 C 57 % 1024,8 hPa 0,0 mm 0,0 km/h (0 Bft) S 180 3,4 C 0,0 km/h (0 Bft)
11.11.2015 16:15 10,8 C 10,9 C 58 % 1024,8 hPa 0,0 mm 0,8 km/h (0 Bft) S 180 2,9 C 4,7 km/h (1 Bft)
11.11.2015 16:20 10,2 C 10,8 C 59 % 1024,8 hPa 0,0 mm 1,0 km/h (0 Bft) S-SO 157 2,6 C 2,8 km/h (1 Bft)
11.11.2015 16:25 9,4 C 10,5 C 60 % 1024,8 hPa 0,0 mm 1,8 km/h (1 Bft) S 180 2,0 C 0,0 km/h (0 Bft)
11.11.2015 16:30 9,1 C 10,4 C 62 % 1024,8 hPa 0,0 mm 1,8 km/h (1 Bft) SO 135 2,2 C 3,1 km/h (1 Bft)
11.11.2015 16:35 8,6 C 9,8 C 62 % 1024,8 hPa 0,0 mm 1,0 km/h (0 Bft) O-SO 112 1,7 C 0,0 km/h (0 Bft)
11.11.2015 16:40 8,6 C 9,1 C 64 % 1024,8 hPa 0,0 mm 0,3 km/h (0 Bft) O-SO 112 2,2 C 0,0 km/h (0 Bft)
11.11.2015 16:45 8,9 C 8,9 C 65 % 1024,8 hPa 0,0 mm 0,3 km/h (0 Bft) S-SO 157 2,7 C 3,9 km/h (1 Bft)
11.11.2015 16:50 9,2 C 9,2 C 64 % 1024,8 hPa 0,0 mm 1,0 km/h (0 Bft) S 180 2,8 C 4,1 km/h (1 Bft)
11.11.2015 16:55 9,1 C 9,1 C 64 % 1024,8 hPa 0,0 mm 2,3 km/h (1 Bft) S-SO 157 2,7 C 0,0 km/h (0 Bft)
11.11.2015 17:00 9,0 C 8,9 C 64 % 1024,8 hPa 0,0 mm 1,6 km/h (1 Bft) S-SO 157 2,6 C 0,0 km/h (0 Bft)
11.11.2015 17:05 8,9 C 8,8 C 64 % 1024,8 hPa 0,0 mm 0,8 km/h (0 Bft) S-SO 157 2,5 C 3,1 km/h (1 Bft)
11.11.2015 17:10 8,8 C 8,6 C 65 % 1024,7 hPa 0,0 mm 1,6 km/h (1 Bft) S 180 2,6 C 2,8 km/h (1 Bft)
11.11.2015 17:15 8,5 C 8,4 C 65 % 1024,7 hPa 0,0 mm 2,6 km/h (1 Bft) S-SO 157 2,3 C 3,1 km/h (1 Bft)
11.11.2015 17:20 8,4 C 8,2 C 66 % 1024,7 hPa 0,0 mm 2,8 km/h (1 Bft) S-SO 157 2,4 C 3,4 km/h (1 Bft)
11.11.2015 17:25 8,1 C 8,0 C 66 % 1024,7 hPa 0,0 mm 1,6 km/h (1 Bft) S-SO 157 2,1 C 0,0 km/h (0 Bft)
11.11.2015 17:30 7,5 C 7,4 C 66 % 1024,8 hPa 0,0 mm 0,3 km/h (0 Bft) SO 135 1,6 C 0,0 km/h (0 Bft)
11.11.2015 17:35 7,2 C 7,0 C 67 % 1024,8 hPa 0,0 mm 0,0 km/h (0 Bft) S 180 1,5 C 0,0 km/h (0 Bft)
11.11.2015 17:40 6,9 C 6,8 C 67 % 1024,8 hPa 0,0 mm 0,0 km/h (0 Bft) SO 135 1,2 C 0,0 km/h (0 Bft)
11.11.2015 17:45 6,3 C 6,2 C 69 % 1024,8 hPa 0,0 mm 0,0 km/h (0 Bft) O-SO 112 1,0 C 0,0 km/h (0 Bft)
11.11.2015 17:50 6,1 C 6,0 C 69 % 1024,7 hPa 0,0 mm 0,0 km/h (0 Bft) O-SO 112 0,8 C 0,0 km/h (0 Bft)
11.11.2015 17:55 5,6 C 5,5 C 69 % 1024,7 hPa 0,0 mm 0,0 km/h (0 Bft) O-SO 112 0,4 C 0,0 km/h (0 Bft)
11.11.2015 18:00 5,3 C 5,2 C 69 % 1024,7 hPa 0,0 mm 0,0 km/h (0 Bft) O-SO 112 0,1 C 0,0 km/h (0 Bft)
11.11.2015 18:05 4,9 C 4,7 C 70 % 1024,7 hPa 0,0 mm 0,0 km/h (0 Bft) O-SO 112 -0,1 C 0,0 km/h (0 Bft)
11.11.2015 18:10 4,7 C 4,5 C 71 % 1024,8 hPa 0,0 mm 0,0 km/h (0 Bft) O-SO 112 -0,1 C 0,0 km/h (0 Bft)
11.11.2015 18:15 4,6 C 4,3 C 71 % 1024,8 hPa 0,0 mm 0,0 km/h (0 Bft) O-SO 112 -0,2 C 0,0 km/h (0 Bft)
11.11.2015 18:20 4,7 C 4,3 C 73 % 1024,8 hPa 0,0 mm 0,0 km/h (0 Bft) O-SO 112 0,3 C 0,0 km/h (0 Bft)
11.11.2015 18:25 4,3 C 4,0 C 73 % 1024,8 hPa 0,0 mm 0,0 km/h (0 Bft) O-SO 112 -0,1 C 0,0 km/h (0 Bft)
11.11.2015 18:30 4,1 C 3,8 C 73 % 1025,1 hPa 0,0 mm 0,0 km/h (0 Bft) O-SO 112 -0,3 C 0,0 km/h (0 Bft)
11.11.2015 18:35 4,5 C 4,0 C 75 % 1025,1 hPa 0,0 mm 0,0 km/h (0 Bft) O-SO 112 0,5 C 0,0 km/h (0 Bft)
11.11.2015 18:40 4,7 C 4,2 C 75 % 1025,1 hPa 0,0 mm 0,0 km/h (0 Bft) O-SO 112 0,7 C 0,0 km/h (0 Bft)
11.11.2015 18:45 4,3 C 3,9 C 75 % 1025,1 hPa 0,0 mm 0,0 km/h (0 Bft) O-SO 112 0,3 C 0,0 km/h (0 Bft)
11.11.2015 18:50 4,3 C 3,9 C 75 % 1025,1 hPa 0,0 mm 0,0 km/h (0 Bft) O-SO 112 0,3 C 0,0 km/h (0 Bft)
11.11.2015 18:55 4,1 C 3,7 C 76 % 1025,1 hPa 0,0 mm 0,0 km/h (0 Bft) O-SO 112 0,3 C 0,0 km/h (0 Bft)
11.11.2015 19:00 4,0 C 3,7 C 76 % 1025,1 hPa 0,0 mm 0,0 km/h (0 Bft) O-SO 112 0,2 C 0,0 km/h (0 Bft)
11.11.2015 19:05 4,0 C 3,6 C 76 % 1025,1 hPa 0,0 mm 0,0 km/h (0 Bft) O-SO 112 0,2 C 0,0 km/h (0 Bft)
11.11.2015 19:10 4,0 C 3,6 C 77 % 1024,9 hPa 0,0 mm 0,0 km/h (0 Bft) O-SO 112 0,3 C 0,0 km/h (0 Bft)
11.11.2015 19:15 4,1 C 3,6 C 77 % 1024,9 hPa 0,0 mm 0,0 km/h (0 Bft) O-SO 112 0,4 C 0,0 km/h (0 Bft)
11.11.2015 19:20 4,3 C 3,8 C 78 % 1024,9 hPa 0,0 mm 0,0 km/h (0 Bft) O-SO 112 0,8 C 0,0 km/h (0 Bft)
11.11.2015 19:25 3,7 C 3,4 C 78 % 1024,9 hPa 0,0 mm 0,0 km/h (0 Bft) O-SO 112 0,2 C 0,0 km/h (0 Bft)
11.11.2015 19:30 3,6 C 3,3 C 78 % 1025,2 hPa 0,0 mm 0,0 km/h (0 Bft) O-SO 112 0,1 C 0,0 km/h (0 Bft)
11.11.2015 19:35 3,6 C 3,3 C 78 % 1025,2 hPa 0,0 mm 0,0 km/h (0 Bft) O-SO 112 0,1 C 0,0 km/h (0 Bft)
11.11.2015 19:40 3,4 C 3,2 C 78 % 1025,2 hPa 0,0 mm 0,0 km/h (0 Bft) O-SO 112 -0,1 C 0,0 km/h (0 Bft)
11.11.2015 19:45 3,8 C 3,4 C 80 % 1025,2 hPa 0,0 mm 0,0 km/h (0 Bft) O-SO 112 0,7 C 0,0 km/h (0 Bft)
11.11.2015 19:50 4,3 C 3,9 C 76 % 1025,1 hPa 0,0 mm 0,0 km/h (0 Bft) O-SO 112 0,5 C 0,0 km/h (0 Bft)
11.11.2015 19:55 3,7 C 3,4 C 80 % 1025,1 hPa 0,0 mm 0,0 km/h (0 Bft) O-SO 112 0,6 C 0,0 km/h (0 Bft)
11.11.2015 20:00 4,2 C 3,7 C 81 % 1025,1 hPa 0,0 mm 0,0 km/h (0 Bft) O-SO 112 1,2 C 0,0 km/h (0 Bft)
11.11.2015 20:05 4,8 C 4,1 C 81 % 1025,1 hPa 0,0 mm 0,0 km/h (0 Bft) O-SO 112 1,8 C 0,0 km/h (0 Bft)
11.11.2015 20:10 4,4 C 3,8 C 80 % 1025,2 hPa 0,0 mm 0,0 km/h (0 Bft) O-SO 112 1,3 C 0,0 km/h (0 Bft)
11.11.2015 20:15 4,1 C 3,6 C 80 % 1025,2 hPa 0,0 mm 0,0 km/h (0 Bft) O-SO 112 1,0 C 0,0 km/h (0 Bft)
11.11.2015 20:20 4,4 C 3,8 C 81 % 1025,2 hPa 0,0 mm 0,0 km/h (0 Bft) O-SO 112 1,4 C 0,0 km/h (0 Bft)
11.11.2015 20:25 3,7 C 3,4 C 80 % 1025,2 hPa 0,0 mm 0,0 km/h (0 Bft) O-SO 112 0,6 C 0,0 km/h (0 Bft)
11.11.2015 20:30 3,5 C 3,2 C 79 % 1025,2 hPa 0,0 mm 0,0 km/h (0 Bft) O-SO 112 0,2 C 0,0 km/h (0 Bft)
11.11.2015 20:35 3,2 C 3,0 C 79 % 1025,2 hPa 0,0 mm 0,0 km/h (0 Bft) O-SO 112 -0,1 C 0,0 km/h (0 Bft)
11.11.2015 20:39 3,0 C 2,0 C 79 % 1025,2 hPa 0,0 mm 0,0 km/h (0 Bft) O-SO 112 -0,3 C 0,0 km/h (0 Bft)
11.11.2015 20:41 3,0 C 2,0 C 79 % 1025,2 hPa 0,0 mm 0,0 km/h (0 Bft) O-SO 112 -0,3 C 0,0 km/h (0 Bft)
11.11.2015 20:45 2,8 C 1,9 C 80 % 1025,2 hPa 0,0 mm 0,0 km/h (0 Bft) O-SO 112 -0,3 C 0,0 km/h (0 Bft)
11.11.2015 20:50 2,9 C 1,9 C 81 % 1025,2 hPa 0,0 mm 0,0 km/h (0 Bft) O-SO 112 -0,0 C 0,0 km/h (0 Bft)
11.11.2015 20:55 2,7 C 1,8 C 81 % 1025,2 hPa 0,0 mm 0,0 km/h (0 Bft) O-SO 112 -0,2 C 0,0 km/h (0 Bft)
11.11.2015 21:00 2,6 C 1,7 C 81 % 1025,2 hPa 0,0 mm 0,0 km/h (0 Bft) O-SO 112 -0,3 C 0,0 km/h (0 Bft)
11.11.2015 21:05 2,9 C 1,9 C 82 % 1025,2 hPa 0,0 mm 0,0 km/h (0 Bft) O-SO 112 0,1 C 0,0 km/h (0 Bft)
11.11.2015 21:10 2,5 C 1,7 C 82 % 1025,4 hPa 0,0 mm 0,0 km/h (0 Bft) O-SO 112 -0,3 C 0,0 km/h (0 Bft)
11.11.2015 21:15 2,4 C 1,6 C 82 % 1025,4 hPa 0,0 mm 0,0 km/h (0 Bft) O-SO 112 -0,4 C 0,0 km/h (0 Bft)
11.11.2015 21:20 2,0 C 1,3 C 81 % 1025,4 hPa 0,0 mm 0,0 km/h (0 Bft) O-SO 112 -0,9 C 0,0 km/h (0 Bft)
11.11.2015 21:25 2,3 C 1,5 C 82 % 1025,4 hPa 0,0 mm 0,0 km/h (0 Bft) O-SO 112 -0,4 C 0,0 km/h (0 Bft)
11.11.2015 21:30 2,0 C 1,3 C 82 % 1025,4 hPa 0,0 mm 0,0 km/h (0 Bft) O-SO 112 -0,7 C 0,0 km/h (0 Bft)
11.11.2015 21:35 2,1 C 1,4 C 82 % 1025,4 hPa 0,0 mm 0,0 km/h (0 Bft) O-SO 112 -0,6 C 0,0 km/h (0 Bft)
11.11.2015 21:40 2,0 C 1,3 C 83 % 1025,4 hPa 0,0 mm 0,0 km/h (0 Bft) O-SO 112 -0,6 C 0,0 km/h (0 Bft)
11.11.2015 21:45 1,9 C 1,3 C 83 % 1025,4 hPa 0,0 mm 0,0 km/h (0 Bft) O-SO 112 -0,7 C 0,0 km/h (0 Bft)
11.11.2015 21:50 1,9 C 1,3 C 83 % 1025,2 hPa 0,0 mm 0,0 km/h (0 Bft) O-SO 112 -0,7 C 0,0 km/h (0 Bft)
11.11.2015 21:55 1,8 C 1,2 C 83 % 1025,2 hPa 0,0 mm 0,0 km/h (0 Bft) O-SO 112 -0,8 C 0,0 km/h (0 Bft)
11.11.2015 22:00 2,1 C 1,4 C 83 % 1025,2 hPa 0,0 mm 0,0 km/h (0 Bft) O-SO 112 -0,5 C 0,0 km/h (0 Bft)
11.11.2015 22:05 2,1 C 1,4 C 84 % 1025,2 hPa 0,0 mm 0,0 km/h (0 Bft) O-SO 112 -0,3 C 0,0 km/h (0 Bft)
11.11.2015 22:10 2,3 C 1,5 C 84 % 1025,2 hPa 0,0 mm 0,0 km/h (0 Bft) O-SO 112 -0,1 C 0,0 km/h (0 Bft)
11.11.2015 22:15 1,8 C 1,2 C 84 % 1025,2 hPa 0,0 mm 0,0 km/h (0 Bft) O-SO 112 -0,6 C 0,0 km/h (0 Bft)
11.11.2015 22:20 1,4 C 0,9 C 84 % 1025,2 hPa 0,0 mm 0,0 km/h (0 Bft) O-SO 112 -1,0 C 0,0 km/h (0 Bft)
11.11.2015 22:25 1,4 C 0,9 C 84 % 1025,2 hPa 0,0 mm 0,0 km/h (0 Bft) O-SO 112 -1,0 C 0,0 km/h (0 Bft)
11.11.2015 22:30 1,6 C 1,1 C 84 % 1025,4 hPa 0,0 mm 0,0 km/h (0 Bft) O-SO 112 -0,8 C 0,0 km/h (0 Bft)
11.11.2015 22:35 1,6 C 1,1 C 85 % 1025,4 hPa 0,0 mm 0,0 km/h (0 Bft) O-SO 112 -0,6 C 0,0 km/h (0 Bft)
11.11.2015 22:40 1,5 C 1,0 C 85 % 1025,4 hPa 0,0 mm 0,0 km/h (0 Bft) O-SO 112 -0,7 C 0,0 km/h (0 Bft)
11.11.2015 22:45 1,5 C 1,0 C 85 % 1025,4 hPa 0,0 mm 0,0 km/h (0 Bft) O-SO 112 -0,7 C 0,0 km/h (0 Bft)
11.11.2015 22:50 1,4 C 0,9 C 85 % 1025,2 hPa 0,0 mm 0,0 km/h (0 Bft) O-SO 112 -0,8 C 0,0 km/h (0 Bft)
11.11.2015 22:55 1,3 C 0,9 C 85 % 1025,2 hPa 0,0 mm 0,0 km/h (0 Bft) O-SO 112 -0,9 C 0,0 km/h (0 Bft)
11.11.2015 23:00 1,2 C 0,8 C 85 % 1025,2 hPa 0,0 mm 0,0 km/h (0 Bft) O-SO 112 -1,0 C 0,0 km/h (0 Bft)
11.11.2015 23:05 1,0 C 0,7 C 85 % 1025,2 hPa 0,0 mm 0,0 km/h (0 Bft) O-SO 112 -1,2 C 0,0 km/h (0 Bft)
11.11.2015 23:10 1,3 C 0,9 C 85 % 1025,2 hPa 0,0 mm 0,0 km/h (0 Bft) O-SO 112 -0,9 C 0,0 km/h (0 Bft)
11.11.2015 23:15 1,3 C 0,9 C 86 % 1025,2 hPa 0,0 mm 0,0 km/h (0 Bft) O-SO 112 -0,8 C 0,0 km/h (0 Bft)
11.11.2015 23:20 1,4 C 0,9 C 86 % 1025,2 hPa 0,0 mm 0,0 km/h (0 Bft) O-SO 112 -0,7 C 0,0 km/h (0 Bft)
11.11.2015 23:25 1,1 C 0,7 C 86 % 1025,2 hPa 0,0 mm 0,0 km/h (0 Bft) O-SO 112 -1,0 C 0,0 km/h (0 Bft)
11.11.2015 23:30 1,3 C 0,9 C 86 % 1025,2 hPa 0,0 mm 0,0 km/h (0 Bft) O-SO 112 -0,8 C 0,0 km/h (0 Bft)
11.11.2015 23:35 1,1 C 0,7 C 86 % 1025,2 hPa 0,0 mm 0,0 km/h (0 Bft) O-SO 112 -1,0 C 0,0 km/h (0 Bft)
11.11.2015 23:40 1,0 C 0,7 C 86 % 1025,2 hPa 0,0 mm 0,0 km/h (0 Bft) O-SO 112 -1,1 C 0,0 km/h (0 Bft)
11.11.2015 23:45 0,9 C 0,6 C 86 % 1025,2 hPa 0,0 mm 0,0 km/h (0 Bft) O-SO 112 -1,2 C 0,0 km/h (0 Bft)
11.11.2015 23:50 1,1 C 0,7 C 86 % 1025,0 hPa 0,0 mm 0,0 km/h (0 Bft) O-SO 112 -1,0 C 0,0 km/h (0 Bft)
11.11.2015 23:55 1,0 C 0,7 C 86 % 1025,0 hPa 0,0 mm 0,0 km/h (0 Bft) O-SO 112 -1,1 C 0,0 km/h (0 Bft)
_ Min-Zeit 07:35 07:35 14:45 18:05 - 23:55 - - 07:35 23:55
Minimum _ -0,2 C -0,6 C 46 % 1024,7 hPa - 0,0 km/h (0 Bft) - - -3,9 C 0,0 km/h (0 Bft)
_ Max-Zeit 14:35 14:25 23:55 00:25 23:55 01:55 - - 13:35 02:50
Maximum _ 15,2 C 21,4 C 86 % 1026,1 hPa 0,0 mm 4,4 km/h
S-SO (1 Bft)
- - 5,2 C 9,6 km/h
S (2 Bft)
Durchschnitt _ 5,4 C 4,9 C 70 % 1025,4 hPa #0,0 mm 0,2 km/h (0 Bft) S-SO - 0,1 C 0,3 km/h (0 Bft)